Weather in Shchastia

Ukraine / Luhansk Region     48°44′13″N   39°14′03″E
temp.,
°C
wind,
m/s
gust,
m/s
humid.,
%
clouds,
%
prec.,
mm/h
press.,
hPa
HPBL,
m
18 may, tue
tue1800:00+17ssw2388100 0.4 1007102
03:00+15sse2292100 0.4 100724
06:00+15sw479499 0.4 1007257
09:00+16ssw4792100 0.6 1008388
12:00+21ssw4665100 0.3 10081221
15:00+21ssw5759100 0.8 10081411
18:00+20ssw6866100 0.1 1008948
21:00+15s39834 0.1 1008177
19 may, wed
wed1900:00+13s39902 0.0 1008199
03:00+13sse388791 0.0 1008173
06:00+14se3786100 0.3 1008270
09:00+15sse4785100 0.5 1007455
12:00+14w4791100 4.4 1008351
15:00+17ssw6870100 5.1 10091140
18:00+17s6969100 0.8 1008696
21:00+13ssw6128099 0.8 1009499
20 may, thu
thu2000:00+13s61087100 0.1 1009752
03:00+14ssw6118858 0.3 1009642
06:00+12ssw7129098 0.4 1010718
09:00+16sw797066 0.5 10101157
12:00+16wsw61070100 0.1 10121260
15:00+21wsw6105198 0.2 10122126
18:00+21wsw3555100 0.0 1012632
21:00+16ssw387214 0.1 1014195
21 may, fri
fri2100:00+13s227634 0.0 101411
03:00+13se2284100 0.0 101410
06:00+14e128227 0.0 101566
09:00+20e456392 0.0 1015596
12:00+23ese6750100 0.0 1013941
15:00+24ese6953100 0.0 1013942
18:00+23ese5106275 0.0 1012435
21:00+19e41275100 0.0 1012202
22 may, sat
sat2200:00+18e51374100 0.0 1011272
03:00+16ese412740 0.0 1011279
06:00+16ese411740 0.0 1011364
09:00+21se6860100 0.0 1011606
12:00+25se6753100 0.0 1011917
15:00+27se5757100 0.0 10111067
18:00+26wsw0265100 0.0 1011254
21:00+22ene4970100 0.0 1010151